sat.trackr.live / text

‹ back to catalog

SHIYAN-30 02

NORAD 65852 · 2025-222B

PAYLOAD ACTIVE UNKNOWN

§ Identity

Operator
Country
PRC
Launch date
2025-09-29
Launch site
XICLF
Launch vehicle
Mass (kg)
RCS (m²)

External: N2YO · Heavens-Above · Gunter

§ Orbital elements

Epoch: 2026-09-20T20:34:20.431488Z

Period
96.52 min
Inclination
34.9972°
Eccentricity
0.0003205
Mean motion
14.91984809 rev/d
Perigee alt
589.5 km
Apogee alt
594.0 km
Semi-major
6,969.9 km
B*
1.1176e-4
RAAN
48.7991°
Arg perigee
245.4044°
Mean anomaly
114.6327°
Rev number
5,331

§ Raw data

SHIYAN-30 021 65852U 25222B   26263.85718092  .00001127  00000+0  11176-3 0  99972 65852  34.9972  48.7991 0003205 245.4044 114.6327 14.91984809 53312

JSON: /api/v1/satellites/65852 · /tle

For live sub-satellite position, see the globe view (requires WebGL).

§ Visibility from observer

Set your observer location to see the next 7 days of passes ≥ 10°. The values pass through the URL so the page stays shareable.

No JS? Fill the form by hand. The geolocation button needs JavaScript.